Tracking 22100 objects as of 20-Jan-2021
HD Live streaming from Space Station
objects crossing your sky now

COSMOS 2022 (GLONASS)

Track COSMOS 2022 (GLONASS) now!
COSMOS 2022 (GLONASS) is classified as:


NORAD ID: 20024
Int'l Code: 1989-039A
Perigee: 19,115.9 km
Apogee: 19,158.1 km
Inclination: 65.5 °
Period: 675.7 minutes
Semi major axis: 25508 km
RCS: 4.9605 m2 (large)
Launch date: May 31, 1989
Source: Commonwealth of Independent States (former USSR) (CIS)
Launch site: TYURATAM MISSILE AND SPACE COMPLEX (TTMTR)
aabbcc
Your satellite tracking list
Your tracking list is empty




NASA's NSSDC Master Catalog

Two Line Element Set (TLE):
1 20024U 89039A   21019.52612126 -.00000051  00000-0  00000-0 0  9992
2 20024  65.5203  18.0860 0008283 223.0615 317.1281  2.13102200246257
Source of the keplerian elements: AFSPC